Weather History for Jonesville, VA

Change the Weather History Date:

Friday, January 18, 2013

  Actual Average (KLOZ) Record (KLOZ)
Temperature  
Mean Temperature 30 °F 35 °F  
Max Temperature 37 °F 45 °F 69 °F (1996)
Min Temperature 23 °F 26 °F -7 °F (1994)
Degree Days  
Heating Degree Days 35 30  
Month to date heating degree days 536  
Since 1 July heating degree days 2188  
Cooling Degree Days 0 0  
Month to date cooling degree days 0  
Year to date cooling degree days 0  
Moisture  
Dew Point 27 °F    
Average Humidity 89    
Maximum Humidity 100    
Minimum Humidity 70    
Precipitation  
Precipitation 0.00 in 0.11 in 1.18 in (2004)
Month to date precipitation 2.05  
Year to date precipitation 2.05  
Sea Level Pressure  
Sea Level Pressure 30.47 in    
Wind  
Wind Speed 1 mph (West)    
Max Wind Speed 5 mph    
Max Gust Speed -    
Visibility 8 miles    
Events Rain    
T = Trace of Precipitation, MM = Missing Value Source: NWS Daily Summary

Daily Weather History Graph

Daily Weather History Graph

Search for Another Location

Airport:

Trip Planner

Search our weather history database for the weather conditions in past years. The results will help you decide how hot, cold, wet, or windy it might be!

Date:

Astronomy

Jan. 18, 2013 Rise Set
Actual Time 7:43 AM EST 5:43 PM EST
Civil Twilight 7:15 AM EST 6:12 PM EST
Nautical Twilight 6:43 AM EST 6:43 PM EST
Astronomical Twilight 6:12 AM EST 7:14 PM EST
Moon 11:34 AM EST (1/18) 12:20 AM EST (1/18)
Length of Visible Light 10h 56m
Length of Day
10h 00m
Waxing Crescent, 47% of the Moon is Illuminated
Jan 18
Waxing Crescent
Jan 18
First Quarter
Jan 26
Full
Feb 3
Last Quarter
Feb 10
New

Hourly Weather History & Observations

Time (EST) Temp. Windchill Dew Point Humidity Pressure Visibility Wind Dir Wind Speed Gust Speed Precip Events Conditions
12:15 AM 28.4 °F 23.3 °F 24.8 °F 86% 30.35 in 10.0 mi NNW 4.6 mph - N/A   Clear
12:35 AM 28.4 °F 23.3 °F 24.8 °F 86% 30.36 in 10.0 mi NNW 4.6 mph - N/A   Clear
12:55 AM 28.4 °F - 24.8 °F 86% 30.36 in 10.0 mi Calm Calm - N/A   Partly Cloudy
1:15 AM 26.6 °F - 24.8 °F 93% 30.37 in 10.0 mi Calm Calm - N/A   Clear
1:35 AM 26.6 °F - 24.8 °F 93% 30.38 in 10.0 mi Calm Calm - N/A   Clear
1:55 AM 26.6 °F - 26.6 °F 100% 30.38 in 5.0 mi Calm Calm - N/A   Clear
2:15 AM 24.8 °F - 24.8 °F 100% 30.39 in 6.0 mi Calm Calm - N/A   Clear
2:35 AM 23.0 °F - 23.0 °F 100% 30.40 in 6.0 mi Calm Calm - N/A   Clear
2:55 AM 23.0 °F 18.4 °F 23.0 °F 100% 30.41 in 3.0 mi SW 3.5 mph - N/A   Clear
3:15 AM 24.8 °F - 24.8 °F 100% 30.41 in 8.0 mi Calm Calm - N/A   Partly Cloudy
3:55 AM 24.8 °F - 23.0 °F 93% 30.41 in 8.0 mi Calm Calm - N/A   Mostly Cloudy
4:15 AM 24.8 °F - 24.8 °F 100% 30.41 in 6.0 mi Calm Calm - N/A   Mostly Cloudy
4:35 AM 24.8 °F - 24.8 °F 100% 30.41 in 6.0 mi Calm Calm - N/A   Scattered Clouds
4:55 AM 23.0 °F - 23.0 °F 100% 30.41 in 5.0 mi Calm Calm - N/A   Partly Cloudy
5:15 AM 24.8 °F - 24.8 °F 100% 30.42 in 5.0 mi Calm Calm - N/A   Partly Cloudy
5:35 AM 24.8 °F - 24.8 °F 100% 30.42 in 8.0 mi Calm Calm - N/A   Mostly Cloudy
5:55 AM 24.8 °F 20.5 °F 24.8 °F 100% 30.42 in 7.0 mi WSW 3.5 mph - N/A   Overcast
6:15 AM 24.8 °F - 24.8 °F 100% 30.43 in 7.0 mi Calm Calm - N/A   Mostly Cloudy
6:35 AM 24.8 °F 20.5 °F 24.8 °F 100% 30.44 in 8.0 mi SW 3.5 mph - N/A   Partly Cloudy
7:15 AM 24.8 °F - 24.8 °F 100% 30.46 in 7.0 mi Calm Calm - N/A   Scattered Clouds
7:35 AM 24.8 °F - 24.8 °F 100% 30.46 in 8.0 mi Calm Calm - N/A   Mostly Cloudy
7:55 AM 24.8 °F - 23.0 °F 93% 30.47 in 7.0 mi Calm Calm - N/A   Partly Cloudy
8:15 AM 26.6 °F - 24.8 °F 93% 30.48 in 8.0 mi Calm Calm - N/A   Scattered Clouds
8:35 AM 26.6 °F - 24.8 °F 93% 30.49 in 8.0 mi Calm Calm - N/A   Mostly Cloudy
8:55 AM 28.4 °F - 26.6 °F 93% 30.50 in 10.0 mi Calm Calm - N/A   Scattered Clouds
9:15 AM 30.2 °F - 26.6 °F 86% 30.51 in 10.0 mi Calm Calm - N/A Rain Light Freezing Rain
9:35 AM 32.0 °F - 26.6 °F 80% 30.52 in 10.0 mi Calm Calm - N/A Rain Light Rain
9:55 AM 28.4 °F - 26.6 °F 93% 30.53 in 10.0 mi Calm Calm - N/A   Mostly Cloudy
10:15 AM 32.0 °F - 26.6 °F 80% 30.53 in 10.0 mi Calm Calm - N/A   Mostly Cloudy
10:35 AM 32.0 °F - 24.8 °F 75% 30.53 in 10.0 mi Calm Calm - N/A   Partly Cloudy
10:55 AM 32.0 °F - 26.6 °F 80% 30.53 in 10.0 mi Calm Calm - N/A   Partly Cloudy
11:15 AM 32.0 °F - 26.6 °F 80% 30.53 in 10.0 mi Calm Calm - N/A   Scattered Clouds
11:35 AM 32.0 °F - 26.6 °F 80% 30.52 in 10.0 mi Calm Calm - N/A   Mostly Cloudy
11:55 AM 32.0 °F - 26.6 °F 80% 30.51 in 10.0 mi Calm Calm - N/A   Scattered Clouds
12:15 PM 32.0 °F - 26.6 °F 80% 30.51 in 10.0 mi Calm Calm - N/A   Scattered Clouds
12:35 PM 33.8 °F - 28.4 °F 81% 30.51 in 10.0 mi Calm Calm - N/A   Mostly Cloudy
12:55 PM 33.8 °F - 26.6 °F 75% 30.51 in 10.0 mi Calm Calm - N/A   Mostly Cloudy
1:15 PM 35.6 °F - 28.4 °F 75% 30.50 in 10.0 mi Calm Calm - N/A   Mostly Cloudy
1:35 PM 33.8 °F - 28.4 °F 81% 30.50 in 10.0 mi Calm Calm - N/A   Mostly Cloudy
1:55 PM 35.6 °F - 28.4 °F 75% 30.50 in 10.0 mi Calm Calm - N/A   Mostly Cloudy
2:15 PM 35.6 °F - 28.4 °F 75% 30.50 in 10.0 mi Calm Calm - N/A   Mostly Cloudy
2:35 PM 37.4 °F - 28.4 °F 70% 30.50 in 10.0 mi Calm Calm - N/A   Overcast
2:55 PM 37.4 °F 34.9 °F 28.4 °F 70% 30.50 in 10.0 mi SW 3.5 mph - N/A   Overcast
3:15 PM 37.4 °F - 28.4 °F 70% 30.51 in 10.0 mi Calm Calm - N/A   Scattered Clouds
3:35 PM 37.4 °F - 28.4 °F 70% 30.51 in 10.0 mi Calm Calm - N/A   Partly Cloudy
3:55 PM 37.4 °F - 28.4 °F 70% 30.51 in 10.0 mi Calm Calm - N/A   Partly Cloudy
4:15 PM 37.4 °F - 28.4 °F 70% 30.50 in 10.0 mi Calm Calm - N/A   Partly Cloudy
4:35 PM 37.4 °F - 30.2 °F 75% 30.50 in 10.0 mi Calm Calm - N/A   Clear
4:55 PM 37.4 °F - 30.2 °F 75% 30.51 in 10.0 mi Calm Calm - N/A   Clear
5:15 PM 37.4 °F - 30.2 °F 75% 30.50 in 10.0 mi Calm Calm - N/A   Clear
5:35 PM 35.6 °F - 30.2 °F 81% 30.50 in 10.0 mi Calm Calm - N/A   Clear
5:55 PM 33.8 °F - 30.2 °F 87% 30.49 in 10.0 mi Calm Calm - N/A   Clear
6:15 PM 32.0 °F - 32.0 °F 100% 30.49 in 9.0 mi Calm Calm - N/A   Clear
6:35 PM 32.0 °F - 30.2 °F 93% 30.49 in 9.0 mi Calm Calm - N/A   Clear
6:55 PM 32.0 °F - 30.2 °F 93% 30.49 in 7.0 mi Calm Calm - N/A   Clear
7:15 PM 28.4 °F - 28.4 °F 100% 30.48 in 4.0 mi Calm Calm - N/A   Clear
7:35 PM 28.4 °F - 28.4 °F 100% 30.48 in 4.0 mi Calm Calm - N/A   Clear
7:55 PM 28.4 °F - 28.4 °F 100% 30.48 in 4.0 mi Calm Calm - N/A   Clear
8:15 PM 28.4 °F - 28.4 °F 100% 30.48 in 5.0 mi Calm Calm - N/A   Clear
8:55 PM 28.4 °F - 28.4 °F 100% 30.48 in 4.0 mi Calm Calm - N/A   Clear
9:15 PM 26.6 °F - 26.6 °F 100% 30.48 in 5.0 mi Calm Calm - N/A   Clear
9:55 PM 26.6 °F - 26.6 °F 100% 30.48 in 5.0 mi Calm Calm - N/A   Clear
10:15 PM 26.6 °F - 26.6 °F 100% 30.47 in 5.0 mi Calm Calm - N/A   Clear
10:35 PM 26.6 °F - 26.6 °F 100% 30.46 in 5.0 mi Calm Calm - N/A   Clear
10:55 PM 26.6 °F - 26.6 °F 100% 30.45 in 5.0 mi Calm Calm - N/A   Clear
11:15 PM 24.8 °F - 24.8 °F 100% 30.45 in 4.0 mi Calm Calm - N/A   Clear
11:35 PM 24.8 °F - 24.8 °F 100% 30.45 in 7.0 mi Calm Calm - N/A   Clear
11:55 PM 24.8 °F - 24.8 °F 100% 30.44 in 5.0 mi Calm Calm - N/A   Clear